Карточка аэропорта URKA

Внимание!
Информация на этой странице в стадии наполнения.
Если вы не увидели какой-то информации, или заметили неточность - пожалуйста сообщите нам!
Спасибо!
Команда RU-STAFF
Название аэропортаВитязево
Название аэропорта (англ.)Vityazevo
Превышение176 ft. (53.6 m.)
Координаты45°0.13200000000012', 37°20.832'
Высота перехода4000 ft
Эшелон переходаFL50 (QNH >= 1013); FL60 (QNH 977-1012); FL70 (QNH < 977)
Коды ответчика1040-1047
Зона ОрВДРостов-на-Дону РПИ (URRV)
Данные METARURKA 230000Z 11003MPS 9999 BKN035 04/01 Q1022 R04/010070 NOSIG RMK QFE763/1017
Проноз погоды (TAF)URKA 221956Z 2221/2321 12003G08MPS 9999 SCT020CB TEMPO 2221/2307 6000 -SHRA SCT011 BKN016CB BECMG 2307/2309 21003G08MPS TEMPO 2309/2316 13003G08MPS BECMG 2316/2317 10003G08MPS
NOTAMshow/hide NOTAM
AWOS   TABLE

Информация о ВПП

ВПП Длина ВПП (м.) Покрытие Курс ВПП Частота ILS
042500Цементобетон36109.1
222500Цементобетон216 

Диспетчерские позиции

Позывной Наименование органа УВД Частота
URKA_R_APPАнапа-Круг118.7
URKA_TWRАнапа-Старт119.8
URKA_GNDАнапа-Руление119.0
URKAFM1119,0



Спутниковое изображение